Regional Weather Roundup
Issued by NWS Little Rock, AR

Home | Current Version | Previous Version | Graphics & Text | Print | Product List | Glossary On
Versions: 1 2 3 4 5 6 7 8 9 10 11 12 13 14 15 16 17 18 19 20 21 22 23 24 25 26 27 28 29 30 31 32
000
ASUS44 KLZK 042105
RWRLZK

WEATHER ROUNDUP FOR ARKANSAS
NATIONAL WEATHER SERVICE LITTLE ROCK AR
300 PM CST SUN DEC 04 2016

NOTE: "FAIR" INDICATES FEW OR NO CLOUDS BELOW 12,000 FEET WITH NO
SIGNIFICANT WEATHER AND/OR OBSTRUCTIONS TO VISIBILITY.

ARZ001-003-010-029-042200-
NORTHWEST ARKANSAS

CITY           SKY/WX    TMP DP  RH WIND       PRES   REMARKS
FAYETTEVILLE   CLOUDY    45  41  86 NW9       30.02R
FORT SMITH     CLOUDY    49  43  80 W7        30.03F
HARRISON       CLOUDY    45  41  86 VRB6      29.99S
BENTONVILLE    CLOUDY    46  36  66 W8        30.02S
ROGERS         CLOUDY    45  39  79 W7        30.02R
SILOAM SPGS    CLOUDY    46  37  71 NW6       30.03R
HIGHFILL       CLOUDY    46  40  79 NW7       30.02R
$$

ARZ004-005-016-042200-
NORTH CENTRAL ARKANSAS

CITY           SKY/WX    TMP DP  RH WIND       PRES   REMARKS
BATESVILLE     CLOUDY    46  41  81 NW6       30.00S
FLIPPIN        CLOUDY    46  37  71 NW5       29.97F
MTN HOME       CLOUDY    45  41  86 VRB3      29.98F
$$

ARZ040-041-042200-
WEST CENTRAL ARKANSAS

CITY           SKY/WX    TMP DP  RH WIND       PRES   REMARKS
MENA           CLOUDY    48  46  93 NW9       30.01S
MOUNT IDA      CLOUDY    48  43  82 NW6       29.98S
$$

ARZ009-017-025-026-028-042200-
NORTHEAST ARKANSAS

CITY           SKY/WX    TMP DP  RH WIND       PRES   REMARKS
CORNING        CLOUDY    45  45 100 W7        30.00S
JONESBORO      CLOUDY    46  42  86 W10       30.00R
NEWPORT        CLOUDY    46  42  86 W8        30.00
WALNUT RIDGE   CLOUDY    45  39  81 W8        29.99S
BLYTHEVILLE    CLOUDY    47  44  90 W5        29.99S
$$

ARZ022-023-033-042-044-042200-
CENTRAL ARKANSAS

CITY           SKY/WX    TMP DP  RH WIND       PRES   REMARKS
LITTLE ROCK    CLOUDY    46  44  93 NW12      30.01R
N LITTLE ROCK    N/A     45  43  93 N3        30.02S
JACKSONVILLE   CLOUDY    47  44  88 NW5       30.00R
SEARCY         CLOUDY    47  44  90 CALM      30.02S
HOT SPRINGS    CLOUDY    50  44  80 VRB5      30.00R
RUSSELLVILLE   CLOUDY    47  43  86 NW7       30.00F
CLINTON        CLOUDY    50  43  76 NW6       29.99S
$$

ARZ036-042200-
EAST ARKANSAS

CITY           SKY/WX    TMP DP  RH WIND       PRES   REMARKS
WEST MEMPHIS   CLOUDY    46  44  93 VRB5      29.98F
$$

ARZ050-053-066-070-073-042200-
SOUTHWEST ARKANSAS

CITY           SKY/WX    TMP DP  RH WIND       PRES   REMARKS
ARKADELPHIA    CLOUDY    51  45  79 NW5       30.00F
CAMDEN         CLOUDY    50  45  81 NW5       30.01R
TEXARKANA      MOSUNNY   52  46  80 NW6       30.01S
EL DORADO      CLOUDY    49  46  90 N5        29.99F
DE QUEEN       CLOUDY    53  45  74 VRB6      30.00S
$$

ARZ056-057-069-042200-
SOUTHEAST ARKANSAS

CITY           SKY/WX    TMP DP  RH WIND       PRES   REMARKS
PINE BLUFF     CLOUDY    46  44  93 NW6       30.00S
STUTTGART      CLOUDY    46  39  76 NW12      29.99F
MONTICELLO     CLOUDY    48  45  89 VRB3      29.99S

$$






USA.gov is the U.S. government's official web portal to all federal, state and local government web resources and services.